GSAT0207 (GALILEO 15)

Last updated on Wed Oct 29 2025 00:02:34 GMT+0000 (Coordinated Universal Time)

1 41859U 16069A 25301.04507159 .00000063 00000+0 00000+0 0 9998 2 41859 55.3533 107.5154 0002000 344.8728 15.1385 1.70474208 55448
UTC large
Height (km)
Speed (km/s)
/
Latitude / Longitude
Inclination (degrees)
Orbital Period (minutes)
Azimuth
Elevation
Range (km)
Doppler Factor

Next 0 passes for location: London (51.5072 / 0.1276)

Sorry there are no passes over London.